Theta_e
355 359 356 355 357 358 352 347 323 331 328 319 320 324 322 334 331 329 326 327 323 332 332 331 330 329 328 324 327 329 331 326 327 318 319 338 351 351 353 353 354 355 357 358 360 362 364 361 361 362 361 358 359 362 360 360 363 361 358 357 358 359 359 359 359 359 358 359 359 360 361 360 361 361 362 361 361 361 361 360 360 361 363 362 362 362 363 363 361 361 361 362 361 361 362 361 362
356 356 353 357 356 353 339 345 326 325 326 320 321 326 326 332 331 324 322 327 327 329 329 330 332 337 336 334 331 329 330 333 335 334 339 347 351 351 353 354 354 354 357 358 359 360 361 363 360 361 361 358 357 359 359 361 363 361 360 358 358 358 358 357 358 359 358 358 360 360 359 360 360 360 361 361 362 362 361 361 360 361 363 362 362 363 362 362 361 361 362 361 361 362 360 362 362
355 355 355 358 353 349 342 340 323 321 318 314 320 326 332 327 326 327 330 330 330 328 329 333 336 336 331 333 325 328 323 337 336 339 341 348 344 348 353 354 355 356 357 359 359 361 360 362 361 360 358 357 356 358 362 360 360 360 358 358 358 359 357 357 357 357 359 359 360 360 360 360 360 360 360 360 360 361 361 361 361 362 362 362 362 362 362 361 360 361 361 361 361 361 361 361 361
358 358 353 351 341 345 333 331 328 322 317 318 321 329 329 327 328 331 335 333 328 328 332 334 331 339 335 327 328 333 332 332 337 338 339 342 345 350 354 355 359 358 359 359 359 359 358 362 361 361 356 358 361 361 360 360 360 359 358 359 358 358 358 357 358 358 359 360 360 359 360 360 359 359 360 360 361 360 360 361 360 361 361 362 362 362 361 361 360 360 361 361 362 362 361 361 361
355 355 355 351 342 333 332 328 327 324 318 322 320 329 330 331 332 334 334 332 329 330 335 335 332 342 342 338 337 330 331 337 338 341 341 347 349 352 355 356 356 356 357 358 358 358 359 363 362 361 360 356 360 360 360 360 361 359 358 358 358 359 360 358 357 358 358 358 358 359 359 360 360 360 360 360 360 360 360 359 360 361 361 362 361 362 362 362 361 362 362 362 362 362 362 362 362
355 354 356 352 338 344 335 326 324 321 327 330 325 328 332 334 334 334 332 330 332 335 337 336 330 331 331 334 336 330 334 331 339 340 344 344 348 353 355 357 355 355 356 357 358 357 360 363 362 360 359 360 361 360 360 360 359 358 358 359 359 359 359 358 358 358 357 358 357 358 358 358 360 360 359 359 360 359 360 360 359 360 361 361 361 362 363 362 362 362 362 362 361 361 363 363 363
351 349 350 350 344 345 326 324 322 325 328 334 330 331 334 335 335 334 330 328 333 336 338 335 336 334 329 334 337 342 344 341 340 341 346 347 350 354 355 355 354 355 357 358 359 359 361 363 361 359 362 361 360 360 359 357 357 358 360 360 360 360 359 358 358 357 357 357 358 359 359 359 358 359 359 359 359 359 360 359 359 359 360 361 360 362 361 360 362 362 362 361 359 360 363 363 363
355 344 344 332 331 333 326 325 325 329 329 336 336 334 337 337 336 335 329 326 327 331 336 335 336 334 331 340 330 340 342 344 346 348 347 348 350 352 355 355 353 354 357 360 361 359 366 362 361 360 360 360 359 359 359 357 356 359 360 360 360 360 357 356 356 357 358 359 359 359 358 358 358 358 358 359 359 359 358 360 360 359 359 360 360 361 359 360 361 360 360 361 360 360 361 361 362
352 349 350 338 329 332 327 325 327 334 333 336 337 340 340 339 338 335 329 331 331 334 333 334 334 329 332 334 333 340 343 347 348 350 346 347 349 352 355 354 353 353 355 357 355 357 361 361 361 361 361 359 358 358 358 360 360 358 360 360 360 359 360 358 359 359 359 358 359 359 358 358 359 359 359 358 359 358 358 358 358 359 359 359 358 359 359 359 358 359 360 361 361 361 360 361 361
348 344 333 335 332 323 324 325 324 329 331 336 336 338 340 340 339 339 336 330 332 334 335 338 337 331 334 328 331 334 340 346 347 346 347 346 350 353 353 352 353 352 353 357 358 356 360 364 361 361 360 356 358 358 358 358 359 360 359 361 360 360 360 359 359 359 359 359 359 357 357 358 358 357 357 359 358 358 358 359 358 358 359 359 359 359 359 357 357 358 359 360 361 362 362 361 362
338 347 346 329 325 322 319 321 326 331 332 335 337 342 342 342 338 337 338 332 336 333 334 337 333 331 331 333 336 345 345 345 343 343 346 347 351 353 352 354 353 353 353 356 357 356 359 361 364 361 360 359 360 359 358 358 360 361 359 360 359 359 359 359 359 359 359 359 358 357 358 356 356 356 357 357 358 358 358 358 358 358 359 360 359 359 358 357 357 357 356 356 358 361 361 361 361
332 335 339 326 324 323 324 324 327 330 332 334 334 342 344 342 340 335 337 332 333 332 332 335 332 336 330 330 333 341 343 341 342 345 347 349 351 352 353 354 353 353 356 358 357 358 358 363 365 363 361 359 357 355 358 358 360 361 360 360 360 360 360 359 359 359 359 359 359 358 357 356 357 357 357 357 358 358 358 359 358 358 359 359 359 359 357 357 357 356 355 354 355 360 361 361 361
338 339 332 326 326 327 327 325 326 327 328 331 334 342 345 341 338 338 338 337 335 331 331 340 338 336 327 330 339 340 338 343 345 347 348 349 351 352 353 353 353 355 357 358 358 359 357 359 361 364 362 359 356 356 358 359 360 359 359 359 360 360 360 361 359 358 359 358 359 358 357 357 358 357 356 356 358 358 358 358 358 359 359 359 359 358 357 357 357 356 354 353 351 360 360 361 361
338 338 334 324 329 327 324 325 327 323 325 334 340 343 345 340 340 342 339 335 334 334 337 340 338 336 331 333 335 335 339 345 345 348 350 352 351 351 351 353 354 355 358 358 358 356 353 356 360 363 366 366 358 358 357 358 358 359 359 359 359 360 361 361 360 359 359 359 358 358 357 356 358 358 357 358 358 358 358 358 358 360 359 358 358 357 357 356 355 354 354 352 352 360 360 361 361
339 343 335 329 326 325 327 322 326 323 325 335 338 342 341 343 344 342 340 335 338 341 340 343 340 333 326 329 329 335 340 344 347 350 351 351 350 351 352 353 354 355 355 356 356 352 353 358 358 363 366 364 362 356 357 354 357 358 360 360 359 360 360 361 361 359 360 359 359 359 358 357 358 359 358 357 357 357 358 358 359 360 359 357 356 356 357 355 355 355 354 351 352 361 361 361 361
343 340 335 325 323 322 324 326 329 326 326 334 338 342 341 342 345 340 342 342 339 341 340 334 339 338 333 331 333 339 343 347 349 351 351 349 350 350 351 352 352 353 357 356 354 354 355 359 361 362 363 364 364 358 353 354 354 356 358 359 360 360 360 361 360 359 361 360 360 360 359 357 355 357 360 358 357 359 358 359 360 361 359 357 357 357 357 353 355 355 352 354 357 362 362 362 362
347 341 326 325 321 324 325 326 327 323 330 335 341 340 334 334 344 346 349 346 337 337 340 338 337 339 334 335 341 344 346 350 351 350 349 349 349 348 349 350 351 352 354 356 356 354 355 360 363 364 365 362 360 358 356 356 356 358 359 360 360 360 360 361 361 361 360 361 361 360 361 362 363 355 353 355 357 358 357 359 360 360 359 358 357 358 357 355 355 354 353 352 361 363 363 363 363
340 331 327 323 328 326 329 328 331 335 332 335 340 340 337 334 339 341 345 340 340 339 338 340 340 339 339 342 345 346 348 348 348 346 345 345 346 344 345 347 347 347 350 353 354 355 356 360 363 363 363 364 365 363 359 359 357 356 361 364 361 361 361 361 364 364 360 360 360 363 360 359 358 363 360 356 356 357 359 360 360 360 360 359 359 359 358 357 356 354 355 362 362 362 363 364 363
333 331 329 323 328 329 335 335 338 335 334 339 340 341 340 337 339 341 335 334 335 334 336 337 337 341 343 343 344 345 347 346 345 343 342 342 343 342 343 346 347 347 347 350 352 354 358 362 363 360 362 364 364 364 363 357 358 361 363 364 362 361 362 362 361 360 357 358 360 362 363 360 358 361 365 363 360 361 361 360 361 361 360 361 360 360 359 357 356 359 363 363 364 363 365 364 363
339 333 328 328 334 335 337 338 339 341 339 338 338 339 340 340 341 342 336 333 335 332 332 334 334 335 339 341 343 344 345 344 344 342 341 342 343 343 343 343 345 346 347 348 352 354 357 361 363 363 363 364 363 363 363 362 363 364 363 364 362 360 357 358 359 360 358 358 363 364 362 363 364 365 363 362 361 360 361 360 360 360 361 361 362 360 361 360 362 362 362 363 363 367 364 360 357
338 334 327 329 334 331 334 338 341 342 342 339 338 338 338 341 341 341 337 332 334 336 337 334 334 336 338 340 341 343 343 343 342 342 341 342 343 343 343 344 345 347 348 351 353 353 354 360 362 364 365 364 363 362 362 362 364 362 363 363 363 364 364 363 359 359 359 364 366 363 365 360 363 363 366 362 361 360 362 362 360 361 364 360 361 361 362 364 362 366 365 362 362 360 360 359 359
337 332 335 335 336 331 337 339 342 341 342 341 340 337 338 345 344 341 338 330 330 335 335 337 338 338 338 339 340 342 341 341 341 342 341 342 342 343 345 346 347 348 351 351 350 353 352 356 359 361 363 366 366 362 362 363 364 362 362 359 361 363 364 364 365 363 365 367 365 364 364 363 361 362 364 365 366 362 363 363 360 360 360 361 362 363 363 364 363 360 360 357 355 356 355 357 356
329 333 335 337 337 333 339 339 341 341 339 339 338 342 344 341 340 341 340 338 338 342 339 339 339 340 340 341 341 340 339 341 341 341 342 341 342 343 344 345 346 346 347 350 352 353 353 354 358 358 361 364 366 366 364 363 362 362 361 358 360 360 362 363 362 363 366 367 365 364 361 360 359 360 362 363 360 360 359 357 356 360 362 363 363 362 363 362 358 356 355 355 353 352 351 355 356
334 329 334 336 342 337 341 338 342 341 341 339 344 346 342 339 333 341 340 342 343 344 341 341 341 341 341 340 341 340 340 340 341 342 343 342 342 344 345 345 346 348 349 350 351 352 354 353 357 358 358 360 365 365 365 362 363 359 358 359 360 358 361 362 361 363 367 365 365 364 362 360 357 353 356 355 355 356 355 358 360 358 359 360 362 360 358 356 356 358 360 357 356 354 351 352 352
334 332 336 337 341 340 342 341 340 342 343 345 345 342 340 342 338 341 340 342 342 341 342 341 341 341 341 341 340 341 341 341 341 342 343 344 344 345 345 347 347 348 347 350 351 352 352 355 356 356 357 360 360 361 362 363 363 362 358 357 358 359 361 361 361 363 362 362 364 365 363 355 351 353 354 354 355 355 357 360 358 358 360 359 362 359 359 360 361 361 361 358 357 356 353 352 353
335 336 338 339 339 342 341 340 340 343 344 345 342 340 343 343 344 339 341 342 343 342 342 340 340 340 340 339 341 341 341 342 342 342 342 344 344 345 345 345 346 345 348 351 352 353 355 354 355 355 356 358 358 358 362 364 363 360 360 360 358 361 359 361 363 359 359 359 360 364 360 354 352 352 353 354 355 358 360 360 359 358 357 359 358 360 360 360 359 359 358 360 356 357 353 354 353
335 336 339 338 340 342 341 337 339 343 343 343 338 339 341 343 341 332 343 343 342 340 340 340 340 339 339 339 341 342 341 341 342 342 342 343 344 344 344 345 346 347 349 349 352 354 355 354 354 356 358 361 358 356 360 363 365 360 360 359 359 359 360 362 359 359 359 359 361 364 362 361 354 353 356 357 358 357 359 360 358 359 356 357 361 360 363 364 363 360 362 362 362 361 356 354 351
335 338 337 339 341 343 341 339 338 341 338 343 339 338 341 343 342 334 340 343 342 340 339 339 337 338 339 340 341 342 341 342 343 342 340 341 342 342 343 345 346 347 347 349 353 358 354 353 354 356 357 359 358 356 360 360 361 360 361 360 358 360 361 359 357 358 357 358 360 363 362 361 361 359 359 358 357 356 357 357 358 359 359 359 362 362 364 366 365 365 365 368 368 364 360 357 356
334 337 330 335 339 337 339 335 338 339 337 342 339 336 334 335 333 338 341 345 343 341 339 338 337 338 339 340 340 342 342 342 342 341 340 342 343 344 342 346 347 348 349 350 354 355 353 353 355 356 357 360 358 356 357 358 359 358 359 359 360 359 358 358 356 356 358 360 362 363 365 364 363 361 360 360 359 357 358 358 357 360 361 363 366 367 367 367 365 363 365 366 363 362 359 360 357
336 335 331 330 332 330 336 339 339 337 338 340 336 316 324 331 337 341 345 343 343 341 339 338 337 337 338 339 340 341 342 343 342 342 342 343 344 343 343 345 348 349 351 352 353 353 354 354 355 357 357 357 358 357 358 357 358 358 359 359 361 360 356 355 356 359 358 358 362 364 364 364 363 364 363 361 359 358 361 361 359 360 364 366 368 367 363 364 363 364 363 362 361 361 358 360 356
330 331 332 325 325 323 336 338 338 334 339 337 335 320 322 329 337 342 345 345 341 338 338 337 337 336 337 338 339 340 342 344 343 344 344 345 345 345 345 346 348 350 351 351 351 356 355 356 355 355 356 357 357 357 357 357 359 358 357 358 359 360 358 357 355 358 358 358 361 362 364 365 367 366 366 366 362 361 359 359 360 363 366 368 364 367 365 366 367 365 361 362 363 361 359 361 360
332 323 321 325 322 323 334 338 337 332 334 339 333 321 325 328 335 342 345 345 342 338 338 338 336 335 336 337 338 339 341 343 345 345 345 345 345 345 347 347 347 350 350 352 353 357 355 356 358 356 356 356 357 358 358 359 358 359 359 358 360 361 358 358 357 358 359 359 361 364 367 367 367 369 369 368 363 363 359 359 362 365 368 366 365 368 368 365 367 364 365 364 359 358 360 358 361
329 322 320 321 322 323 327 336 338 338 334 336 332 321 325 330 335 341 344 344 343 339 337 338 336 335 336 337 338 339 340 343 346 345 346 346 346 346 348 348 349 351 351 352 355 358 357 357 357 355 354 354 356 356 359 359 358 359 360 358 357 360 358 357 360 361 361 362 362 361 365 367 368 369 369 369 364 363 361 362 361 365 367 366 366 367 366 365 366 360 364 364 364 362 357 355 357
322 325 321 322 321 322 322 333 337 337 335 328 334 328 327 332 337 340 342 344 342 339 338 338 337 336 337 338 339 340 342 342 343 347 348 350 347 347 348 351 350 351 353 355 356 356 356 356 357 357 357 355 356 357 359 357 359 359 360 360 362 359 358 357 359 362 363 362 364 364 368 369 368 368 369 367 367 363 364 363 363 364 366 366 366 365 365 365 366 365 365 365 364 366 359 358 355
318 320 319 320 324 323 323 323 331 335 334 328 328 328 327 331 337 340 341 344 342 339 338 337 336 336 336 337 339 340 342 342 344 348 349 350 349 349 349 351 351 353 355 356 358 359 358 357 358 358 356 357 356 359 360 358 358 360 358 361 359 361 363 361 360 360 361 362 362 366 369 368 367 368 367 367 366 362 363 364 366 365 366 363 365 365 364 364 364 363 365 363 366 365 363 363 358
319 322 320 321 319 320 322 328 334 333 328 326 327 323 326 329 334 337 340 342 340 340 341 338 338 338 338 337 338 339 341 341 346 348 350 350 352 351 352 351 353 354 356 357 360 358 359 359 359 359 358 356 357 358 357 355 356 353 354 357 357 359 361 360 363 360 362 361 363 364 368 370 367 368 368 368 370 366 364 366 367 366 366 366 365 363 362 362 362 364 363 362 364 366 365 363 358
319 323 321 321 319 321 327 330 332 334 327 326 328 326 328 329 332 335 338 340 340 338 338 338 338 338 338 337 338 340 341 342 347 348 350 350 351 353 354 354 355 355 357 358 358 358 358 358 359 357 358 359 357 355 356 354 353 353 356 354 352 354 359 359 358 361 360 360 365 367 368 366 368 368 368 368 369 365 367 366 368 367 367 366 365 364 362 363 365 365 364 366 362 362 360 359 356
318 318 319 319 321 319 325 327 333 333 327 325 329 326 325 329 333 334 336 337 336 338 338 337 337 338 338 338 339 341 342 343 345 347 349 350 351 352 354 354 357 354 356 359 358 359 358 359 358 359 358 357 357 357 357 356 358 356 354 354 353 353 356 356 358 361 359 362 367 370 370 369 368 369 369 371 370 367 366 366 368 367 366 366 367 365 366 365 366 367 365 364 365 360 360 358 355
317 316 318 314 317 325 324 330 332 332 328 322 326 323 325 329 332 334 334 334 337 339 340 340 339 338 338 338 339 341 340 342 343 344 347 348 349 351 352 352 353 354 355 356 359 359 359 360 361 361 359 358 358 360 359 358 359 359 356 355 354 353 358 360 359 361 362 362 364 368 370 370 368 370 370 368 369 368 368 367 368 367 368 366 365 365 365 365 365 364 365 360 360 362 361 359 361
312 315 315 312 315 318 317 327 330 330 325 323 324 322 326 332 330 332 338 337 338 341 343 343 343 339 338 339 339 338 340 341 340 342 342 345 347 350 351 351 352 352 355 355 357 358 359 362 363 363 360 360 360 361 361 361 361 363 362 361 360 360 358 362 365 364 365 363 362 365 369 370 369 368 368 367 367 367 367 367 367 366 366 367 366 365 364 363 365 365 364 362 363 357 355 356 359
311 313 315 313 309 313 317 323 329 330 327 330 326 320 321 326 324 327 334 338 336 337 338 338 341 343 342 341 341 341 339 340 341 341 341 343 344 346 349 351 352 351 352 353 355 356 356 360 364 364 361 361 361 362 363 364 364 363 361 362 361 359 360 359 358 357 361 363 362 363 364 367 367 368 368 368 366 366 367 368 367 367 367 365 366 363 362 362 364 364 362 364 362 358 356 356 357
309 310 315 311 310 311 314 324 326 322 322 326 324 313 316 325 325 326 330 332 333 336 334 335 338 341 341 339 339 340 342 342 342 341 340 341 343 346 349 351 350 351 351 353 355 356 357 360 364 366 365 365 362 363 365 364 362 358 357 354 352 352 351 351 351 354 355 356 356 359 365 363 365 367 368 369 368 368 367 368 368 367 366 364 364 365 365 360 360 364 363 363 363 363 362 359 354
308 309 312 313 310 311 315 317 322 316 312 322 328 315 310 324 324 328 329 329 330 334 335 336 339 340 341 340 340 339 339 339 341 341 341 339 343 345 348 350 350 348 350 353 354 356 358 361 366 365 367 366 366 365 365 364 362 359 357 354 353 352 350 351 355 356 354 355 359 361 364 364 367 365 366 368 369 369 368 369 370 369 367 367 367 366 364 362 360 362 363 363 363 364 365 360 358
307 309 313 313 309 307 312 314 314 315 324 326 326 323 312 311 320 327 329 329 328 329 331 334 335 338 339 341 340 340 340 339 340 341 341 341 343 344 346 348 348 347 349 350 352 355 359 362 365 365 367 367 367 366 365 365 363 360 359 357 355 354 350 352 356 357 359 361 360 361 362 362 366 366 368 369 371 369 370 369 370 370 366 368 365 364 364 362 363 365 365 366 367 366 365 362 360
307 309 310 309 309 308 312 314 315 317 318 317 321 325 315 312 321 329 330 326 328 329 331 332 334 337 340 340 340 340 341 341 340 339 341 341 342 344 345 346 347 348 347 348 352 355 358 362 366 366 365 366 368 368 366 364 364 362 361 358 357 357 355 354 356 358 358 361 362 364 366 363 365 367 366 367 369 369 368 369 370 369 366 365 365 365 363 362 364 367 366 365 366 366 366 364 364
310 313 312 311 311 313 315 314 315 318 314 312 319 322 311 310 321 325 330 327 326 326 330 332 333 337 339 340 340 341 342 342 342 341 342 342 343 344 345 347 348 348 348 349 351 354 357 361 364 365 364 365 367 367 366 365 364 365 361 360 360 358 357 357 356 356 361 365 364 366 365 366 363 365 367 368 369 369 370 370 368 368 367 365 363 367 365 364 366 368 367 366 367 366 365 364 363
311 312 315 313 313 314 317 317 317 315 311 314 319 322 317 309 317 322 323 324 327 329 332 334 334 337 339 340 340 340 340 342 341 341 342 342 344 344 345 345 347 349 350 349 349 352 356 358 363 364 364 364 367 366 366 365 364 364 362 362 362 359 358 359 358 361 363 365 364 363 364 365 365 365 364 367 366 367 369 369 366 367 368 369 364 365 366 365 365 367 367 366 368 368 366 367 362
310 309 311 313 313 316 314 313 315 306 304 316 321 320 320 306 316 322 329 332 332 327 329 333 335 334 337 339 340 341 341 341 342 342 341 342 343 344 345 345 347 350 350 349 349 351 354 357 361 363 364 364 365 365 365 364 362 363 363 363 362 361 361 360 361 360 362 362 361 362 364 364 365 364 365 364 364 363 367 367 367 367 368 370 368 368 369 366 366 366 366 367 367 367 368 365 365
309 310 311 306 306 308 305 309 302 303 304 314 318 320 316 314 319 325 329 330 331 333 334 335 336 336 336 338 340 342 341 341 341 341 342 341 341 342 343 346 348 350 350 351 349 349 353 357 360 361 364 365 365 364 365 364 363 363 362 362 363 363 362 363 362 361 363 362 362 362 365 363 364 364 361 360 361 364 367 367 368 367 369 370 372 373 369 371 371 367 369 366 367 367 367 368 363
306 306 308 304 301 301 297 302 305 305 309 317 316 321 313 318 323 328 327 331 333 334 332 337 338 336 337 339 340 341 341 341 341 340 341 342 342 342 345 346 348 350 351 352 350 351 353 355 360 359 363 365 365 364 364 364 363 363 364 363 363 364 363 363 363 362 362 363 364 363 362 360 362 362 361 360 362 363 363 366 369 370 373 373 374 374 373 373 374 370 368 369 366 368 369 366 365
306 309 309 307 307 301 298 301 300 302 305 310 319 311 310 310 317 328 331 333 334 335 336 335 338 339 340 340 341 341 341 342 342 341 340 341 343 345 344 346 349 351 351 351 351 353 355 356 361 361 361 364 365 363 364 363 362 363 363 363 363 364 363 360 362 362 364 363 362 362 364 362 361 362 362 367 365 367 367 369 370 370 371 374 374 373 370 372 375 372 371 371 370 369 368 367 365
308 309 310 306 306 312 303 306 306 304 307 309 313 310 319 317 330 333 333 333 333 334 334 336 337 340 340 340 341 341 341 342 342 341 341 342 343 345 345 347 349 351 353 352 351 355 356 359 362 362 361 363 363 364 362 362 362 362 364 365 363 363 363 362 363 365 365 365 366 365 366 366 365 365 367 367 364 365 367 367 369 369 372 371 373 373 373 370 373 370 371 372 370 367 367 367 366
305 306 302 306 314 311 308 308 309 310 308 305 313 312 315 326 326 328 335 332 332 332 333 333 336 338 341 339 338 340 342 343 343 342 342 344 344 346 346 348 348 349 351 352 355 357 360 361 361 362 361 361 361 364 362 362 363 362 363 363 362 362 361 360 358 361 359 363 365 366 364 364 365 365 364 364 367 367 367 367 368 367 370 372 373 372 371 372 374 370 367 370 368 366 368 367 366
307 301 305 311 315 315 310 302 306 304 300 303 309 307 308 312 307 327 330 332 330 331 331 333 337 338 338 338 339 340 342 343 344 344 345 346 346 346 347 348 348 348 350 352 356 358 361 362 360 360 360 359 358 359 359 360 361 361 362 362 363 362 360 358 358 359 360 362 364 366 366 364 363 363 363 362 366 367 367 367 369 369 369 369 370 369 370 371 372 369 370 370 368 371 368 369 368
308 306 312 304 300 301 308 306 299 299 298 301 306 308 308 311 315 321 326 328 330 332 334 335 335 337 339 339 340 341 342 343 343 344 344 345 346 347 349 350 347 350 353 354 356 358 360 360 359 356 357 357 357 355 357 359 360 359 358 361 361 361 361 361 360 362 362 361 361 361 362 363 363 366 367 368 368 366 367 367 368 370 369 369 371 369 372 372 373 369 369 366 369 369 367 367 370
312 312 309 311 308 305 303 305 307 305 301 300 302 306 304 313 315 324 328 331 333 333 334 334 335 337 339 340 340 341 344 342 343 344 344 344 346 348 350 351 350 351 354 355 357 358 358 360 360 357 355 357 358 355 356 357 358 357 356 359 361 362 363 361 362 363 360 361 361 360 361 360 362 364 365 366 366 365 366 365 364 363 364 366 367 366 368 371 372 370 369 364 365 369 366 366 366
304 305 304 306 305 310 309 309 306 303 302 301 301 300 306 321 332 331 330 332 334 335 335 337 337 338 339 339 340 341 341 342 342 342 343 343 342 344 348 352 352 353 355 356 357 358 358 359 360 359 357 355 355 354 354 358 358 357 358 358 358 360 360 360 359 361 362 362 362 363 361 361 363 363 364 364 364 366 366 365 364 366 363 366 368 367 367 371 371 370 369 367 369 370 368 366 367
306 304 303 305 303 301 299 299 308 307 303 299 301 300 309 324 334 333 332 333 335 337 336 335 337 338 341 340 341 343 341 343 344 347 348 344 345 346 346 350 352 353 355 355 357 358 358 359 359 361 361 359 356 354 356 358 359 357 356 357 358 358 360 360 358 360 360 359 361 362 363 363 361 364 365 363 365 363 365 364 363 365 365 366 368 371 368 368 369 368 369 364 365 367 368 367 366
Wind_Speed
9 9 7 6 4 4 3 5 3 4 5 5 6 3 7 6 8 9 10 11 9 6 7 12 10 9 2 6 8 8 11 4 9 2 7 7 10 12 10 12 12 11 10 8 8 9 9 5 3 3 10 9 6 10 8 9 12 12 11 10 11 13 12 10 9 10 9 10 10 11 11 11 12 13 13 13 12 12 12 14 14 15 14 14 13 13 12 14 14 15 15 15 15 15 15 15 15
7 6 6 5 5 2 3 2 5 4 3 7 7 5 7 8 7 10 12 7 7 9 12 10 8 6 3 6 5 8 11 10 9 9 10 12 13 10 12 12 12 12 9 9 9 8 9 7 3 5 9 14 7 6 11 8 12 10 10 10 10 10 10 11 11 10 9 10 11 11 11 10 11 13 13 12 11 13 12 13 14 14 15 14 14 13 13 14 14 15 15 15 15 15 14 15 15
6 6 5 5 4 6 2 3 3 2 1 8 5 7 7 8 10 10 8 9 12 16 13 9 8 8 8 5 7 2 7 7 12 12 10 13 13 9 12 12 11 11 10 8 8 9 8 7 3 8 8 9 11 11 11 12 11 10 10 10 10 12 11 11 12 10 10 10 9 12 12 11 11 12 12 11 11 12 13 13 14 13 13 14 13 12 13 14 14 14 15 15 15 15 15 15 15
5 4 4 4 4 4 3 1 3 4 3 8 7 7 6 9 11 10 9 12 15 16 11 10 7 5 1 9 7 9 9 8 9 11 10 10 8 12 11 12 11 9 9 8 9 8 8 8 1 7 10 8 12 11 13 11 10 10 10 10 11 9 11 12 13 11 10 10 10 12 12 12 12 12 11 10 11 12 14 13 13 13 12 12 13 12 13 14 14 15 15 15 15 15 15 15 15
5 4 4 6 5 4 3 4 3 4 4 1 8 8 9 10 12 11 11 13 15 13 11 9 8 6 10 8 4 3 8 11 10 9 9 9 13 12 12 12 10 9 9 9 9 9 9 6 5 8 9 11 12 11 12 12 11 10 10 10 10 11 12 12 14 11 8 10 12 12 11 10 12 11 12 11 11 12 12 12 12 13 13 12 13 14 13 14 14 15 15 15 14 15 15 15 15
4 4 5 3 3 4 2 4 4 4 8 4 9 9 11 12 13 12 13 14 13 11 8 7 8 10 7 10 7 8 10 7 8 9 10 11 14 13 12 10 10 9 10 9 9 8 9 8 8 7 10 10 12 14 14 13 11 10 11 11 10 10 11 13 13 9 8 12 13 11 11 11 11 12 12 10 12 12 12 12 13 13 13 12 13 14 13 13 14 14 15 14 14 14 15 15 15
3 3 5 4 3 3 3 3 5 5 7 4 9 11 13 13 13 14 15 15 11 10 6 7 11 11 9 7 11 8 5 10 7 10 8 14 13 12 12 9 10 10 10 9 9 10 11 9 11 8 11 13 14 13 13 12 11 11 12 11 11 11 12 15 12 9 9 11 13 11 11 11 11 12 11 10 12 13 12 12 12 13 12 12 13 13 12 13 12 13 14 14 14 14 15 15 15
2 4 1 3 3 5 2 5 5 3 7 5 9 13 13 14 14 13 16 15 12 9 7 10 7 7 9 2 6 6 7 4 10 9 15 13 13 12 10 10 10 11 10 9 9 10 11 11 10 9 12 13 15 14 12 12 10 12 11 11 11 12 13 14 13 10 12 13 13 13 12 12 12 12 11 10 12 13 13 12 12 12 12 13 13 14 14 12 9 9 11 14 14 13 15 15 14
3 7 3 6 3 2 2 5 6 5 9 8 10 11 13 14 13 14 15 10 13 9 11 9 7 6 8 11 10 9 8 9 11 12 14 14 12 11 8 10 10 10 10 9 10 10 9 13 9 10 12 14 13 12 10 11 12 12 12 11 11 11 12 14 14 13 13 12 13 14 14 12 12 12 13 12 12 13 13 13 11 11 12 12 14 14 13 12 9 7 9 12 13 13 14 14 14
4 2 3 5 5 4 4 6 5 7 9 9 10 12 12 12 13 12 12 14 11 12 10 7 5 11 11 13 11 8 8 11 12 12 12 13 12 9 10 10 10 11 10 9 9 10 9 13 11 9 12 13 13 15 12 11 11 13 13 11 11 14 14 13 14 14 13 13 13 15 15 12 11 11 13 13 13 13 12 13 11 12 13 13 13 13 13 11 9 11 12 11 12 13 13 13 13
3 3 3 6 5 3 7 4 8 8 9 8 10 10 10 11 12 11 10 12 11 11 11 9 12 13 11 11 8 7 11 12 12 13 12 12 11 10 10 10 10 9 9 9 9 9 9 9 12 10 11 13 15 14 12 11 11 14 12 12 13 15 15 13 14 14 14 14 15 16 16 13 10 12 14 14 13 13 12 12 14 11 12 14 13 12 12 10 11 14 13 8 7 14 13 13 13
3 3 3 5 3 2 5 8 9 9 10 10 10 9 7 10 10 10 12 13 12 11 11 7 9 12 12 10 8 9 12 12 11 11 11 11 9 10 9 8 9 9 9 9 9 9 9 8 8 10 11 15 19 13 12 11 13 14 13 13 13 14 15 15 16 15 14 13 14 16 17 16 14 14 14 16 14 14 13 14 14 12 12 13 14 13 12 13 14 12 9 8 7 12 13 13 13
5 3 4 3 4 5 9 8 6 9 9 7 10 8 8 10 10 11 11 11 12 12 11 7 12 9 11 9 8 11 13 11 11 11 11 9 10 9 9 9 9 9 8 8 9 9 8 8 8 7 10 16 19 13 12 13 13 13 13 13 13 13 14 15 16 17 15 14 14 16 18 19 18 16 14 16 17 16 16 14 15 14 13 13 13 12 13 14 13 12 8 8 3 8 12 13 14
3 4 4 3 1 4 6 8 10 8 6 9 8 9 8 8 9 10 10 12 12 9 9 11 8 9 13 11 9 10 11 12 13 12 9 9 9 9 10 9 9 9 8 8 8 7 7 6 7 7 7 9 13 12 14 14 12 12 14 14 14 14 13 15 17 18 16 16 16 16 19 20 18 18 16 14 18 17 15 15 13 14 14 14 13 13 14 13 11 11 10 7 3 10 12 13 13
2 2 3 3 1 3 5 8 9 8 6 9 10 10 8 6 10 9 10 13 9 8 11 8 9 9 9 12 10 11 13 14 13 11 10 10 11 10 10 9 9 8 8 7 7 7 7 6 7 7 7 7 12 10 6 9 14 11 12 14 15 15 14 15 17 18 17 16 17 17 18 21 18 18 18 18 15 15 16 14 13 15 15 15 14 13 12 12 12 10 10 7 10 13 13 13 12
1 3 3 4 2 3 4 5 7 8 7 10 10 9 10 9 8 10 7 6 10 9 8 8 7 4 14 9 14 15 16 15 13 12 11 11 10 10 9 9 8 8 7 6 6 6 6 6 5 6 7 8 8 14 6 6 10 12 12 13 15 15 15 15 18 18 17 17 17 17 17 18 18 15 19 16 16 15 13 12 14 15 15 14 13 15 13 11 11 10 6 12 10 13 13 13 12
2 3 4 2 4 4 7 4 9 7 10 10 10 11 11 11 8 6 6 9 13 10 6 7 4 4 10 11 16 18 16 14 13 14 13 10 9 8 8 7 7 7 5 6 6 5 6 6 6 6 7 11 8 12 7 6 9 11 11 13 15 15 15 16 18 18 17 15 14 15 13 11 11 13 14 13 15 13 14 16 17 16 16 15 13 14 15 14 12 10 11 8 13 13 12 13 11
3 3 4 3 4 2 3 4 5 10 12 11 11 10 13 12 10 10 10 9 10 10 9 8 8 9 12 17 17 17 16 15 14 14 12 10 8 8 8 7 7 6 6 6 6 5 5 6 6 6 7 9 9 8 9 5 4 6 8 8 10 11 12 12 11 11 13 10 11 9 8 7 6 6 11 13 11 14 15 17 17 18 17 16 16 16 14 13 10 11 12 8 10 11 11 8 8
4 4 3 4 3 2 3 3 7 10 12 11 10 10 11 12 12 10 10 11 11 12 10 11 13 15 16 17 17 17 15 15 15 13 13 12 9 10 8 7 6 6 6 6 5 5 5 5 5 6 8 8 9 9 8 9 4 3 6 8 9 12 11 9 9 10 9 8 5 5 9 9 8 6 6 8 9 15 15 16 17 17 17 17 16 15 15 14 15 10 8 8 8 8 5 5 5
1 6 4 5 4 7 7 3 4 6 13 11 11 10 11 12 10 9 10 13 12 11 12 12 14 17 18 18 17 16 15 14 14 13 13 12 10 10 9 8 7 6 6 6 6 4 5 5 6 6 7 7 7 7 7 8 7 5 5 6 9 10 12 8 7 7 5 5 6 7 9 7 9 7 11 13 13 11 12 15 15 14 14 14 16 10 11 12 11 9 8 9 8 3 4 5 6
4 4 5 3 3 8 7 4 4 11 11 11 10 11 13 11 9 9 12 12 9 9 11 14 18 19 20 19 18 16 15 14 13 12 12 11 10 8 7 7 7 6 5 6 5 5 6 6 5 6 6 6 6 6 7 6 6 5 4 5 6 7 9 11 11 8 5 5 8 8 10 10 9 8 8 8 9 8 7 8 9 7 7 9 9 6 7 6 7 5 4 4 5 5 5 5 5
5 6 5 7 4 8 6 5 7 11 10 10 12 12 12 10 9 10 12 6 8 8 10 13 17 19 21 21 18 16 15 14 13 12 12 11 10 8 7 6 6 6 6 5 5 6 6 6 5 6 6 6 6 6 6 7 5 5 5 5 5 6 7 8 8 10 9 8 7 8 7 8 8 7 7 7 8 10 10 9 9 9 8 7 8 6 5 4 5 4 4 4 5 6 5 5 5
1 7 7 5 7 7 6 8 9 11 10 10 11 10 11 10 10 10 4 6 9 8 10 14 17 18 17 17 18 16 15 14 13 13 12 11 10 9 8 6 6 6 5 5 6 5 5 5 5 6 6 6 7 6 6 6 5 6 6 5 5 6 6 7 8 8 8 8 8 8 8 7 7 7 6 6 7 6 7 7 7 6 6 6 5 5 5 4 4 4 4 4 3 5 6 5 5
5 7 6 8 7 9 8 9 9 9 11 9 8 10 9 11 12 7 7 9 10 10 11 15 17 17 17 17 16 16 15 14 13 12 11 10 10 9 8 7 6 5 5 6 6 6 5 6 5 5 6 6 5 6 6 6 5 6 7 6 5 6 5 6 7 7 7 6 6 6 7 7 7 7 7 6 6 6 6 7 6 6 6 5 4 4 5 4 4 4 4 5 3 4 6 5 6
1 4 6 7 9 9 9 8 9 8 7 6 9 9 10 9 9 9 8 10 11 13 13 16 17 17 15 15 16 15 14 13 13 11 9 8 8 8 7 6 6 6 6 6 5 6 6 6 5 6 6 5 5 5 6 5 6 6 6 6 6 5 5 6 7 7 6 7 6 6 6 7 7 7 7 6 6 6 6 6 6 6 5 5 4 4 4 4 4 4 4 4 4 3 5 5 5
1 5 5 8 9 9 10 9 8 9 5 8 10 9 8 9 10 8 8 10 12 14 14 16 17 17 15 15 15 14 14 14 13 12 10 9 9 9 8 7 6 6 6 6 6 6 6 6 5 6 5 5 5 6 5 5 5 6 6 6 6 5 6 6 6 6 6 6 6 5 6 7 7 7 7 7 6 6 6 6 5 5 5 4 4 4 3 3 4 4 5 5 5 4 6 4 3
2 5 7 9 9 9 9 9 7 6 7 8 8 9 10 10 6 6 7 11 13 14 15 16 16 16 15 14 14 13 14 13 13 11 10 9 9 8 8 7 7 6 6 6 6 6 6 6 7 6 6 4 4 5 6 6 5 6 6 6 5 6 6 5 6 6 6 7 7 6 6 6 7 8 7 7 6 6 5 5 5 4 4 4 3 4 4 4 4 4 4 4 4 4 4 4 2
6 7 9 9 8 7 9 9 8 6 5 3 6 9 8 7 5 7 9 11 13 14 15 15 15 15 14 14 14 12 12 11 10 10 11 11 8 8 9 7 7 7 7 6 5 5 7 7 8 7 6 5 4 5 6 6 5 6 6 5 5 5 5 5 6 6 7 7 7 6 5 6 7 7 7 6 6 5 5 5 4 4 4 4 4 4 4 4 4 4 4 3 3 3 4 3 2
7 8 8 8 9 7 5 8 8 6 4 3 5 9 8 6 4 11 12 11 12 13 14 15 15 14 14 14 12 11 11 11 10 9 10 8 8 7 9 8 7 7 6 6 6 6 8 6 7 6 6 6 5 5 5 5 5 5 5 5 5 5 5 5 6 6 7 6 6 6 6 6 5 6 5 6 5 5 5 4 5 4 4 4 4 4 4 3 3 3 4 2 3 3 3 3 2
6 6 5 9 8 6 4 5 7 7 4 5 3 5 6 7 9 11 11 12 13 13 13 14 13 13 13 13 12 12 11 11 11 9 9 8 8 8 9 8 8 7 6 6 7 7 6 5 5 5 6 7 5 5 4 4 5 5 5 5 5 4 5 6 6 6 7 6 6 5 5 5 5 4 5 4 4 5 5 4 4 4 4 3 4 3 3 3 4 4 4 2 3 3 3 4 3
7 5 7 6 7 5 6 5 9 8 4 3 2 1 5 8 9 12 11 12 13 13 13 14 13 14 13 12 12 12 12 10 11 10 10 9 8 8 8 8 8 7 6 7 7 7 6 5 5 5 6 7 6 5 5 5 4 5 5 5 5 3 5 5 6 6 6 6 6 5 5 5 4 4 3 3 3 4 5 5 4 4 4 3 3 3 2 4 4 4 4 4 3 3 3 3 3
4 4 7 5 5 6 7 4 9 7 5 4 5 1 2 9 10 12 10 11 12 12 13 14 14 13 13 12 12 12 11 11 10 11 10 10 9 7 8 8 9 8 8 7 7 7 7 7 6 6 8 7 7 5 5 5 5 4 4 4 5 4 4 5 5 6 6 6 6 6 5 5 4 4 3 1 2 2 4 4 4 4 3 3 3 3 2 3 3 4 4 4 4 4 2 3 3
6 4 4 6 9 8 7 7 7 5 9 5 7 3 4 4 9 10 10 11 11 11 13 13 14 15 14 12 11 10 11 11 10 10 11 9 9 7 8 8 8 8 8 9 8 7 7 8 5 7 8 7 7 7 6 5 4 4 4 4 6 4 5 4 4 4 5 5 4 5 5 4 4 4 3 2 1 2 3 3 4 4 3 3 2 2 2 3 2 3 3 4 5 3 3 4 3
7 8 4 5 6 9 6 9 9 8 10 8 7 4 3 4 8 11 11 11 11 10 12 13 13 13 13 12 11 11 11 11 11 11 11 10 9 8 8 7 8 8 8 8 9 8 7 7 6 5 7 8 7 6 6 5 5 4 4 4 4 4 4 5 5 4 3 5 4 5 5 4 4 4 3 2 0 1 2 2 4 3 2 2 2 2 2 3 3 2 3 3 3 3 3 4 4
7 6 5 6 5 7 8 8 11 10 10 10 10 4 5 7 10 11 12 12 11 11 11 13 13 13 13 12 11 12 11 12 12 10 12 10 11 10 8 9 9 9 8 9 8 7 6 6 6 6 6 7 7 7 6 5 6 4 3 4 5 3 3 3 4 3 4 4 5 5 4 4 4 4 3 3 2 2 2 3 3 2 2 1 2 2 3 3 3 3 3 2 2 3 3 3 3
5 4 2 6 7 8 6 5 12 11 11 9 11 7 6 8 10 10 12 12 12 11 11 11 12 12 12 12 12 11 11 12 10 11 12 11 9 10 9 9 8 8 8 8 9 8 7 7 6 7 6 7 7 7 6 6 5 5 5 4 5 4 4 4 3 4 3 3 5 5 4 4 4 4 4 3 2 1 2 3 3 3 2 1 1 2 3 3 2 2 2 2 2 2 1 2 3
4 7 3 5 3 7 5 7 10 10 9 8 12 9 6 10 12 12 12 13 12 11 12 12 12 12 12 12 12 12 12 12 10 11 11 11 11 10 9 9 8 9 8 9 9 9 8 7 7 8 7 7 6 6 6 6 6 5 5 5 5 6 4 4 4 4 4 4 5 4 4 4 4 4 4 3 3 2 2 3 3 2 2 2 1 3 4 4 2 1 1 1 3 3 3 3 4
5 5 6 4 5 6 6 7 10 10 9 7 9 9 12 11 12 13 11 12 14 13 13 13 14 13 12 13 13 13 11 10 12 11 12 12 10 11 10 8 9 10 9 10 10 9 9 9 8 8 7 7 6 6 5 5 5 5 6 5 5 6 5 5 4 4 4 5 4 3 4 4 4 4 4 3 3 3 3 3 2 2 1 2 3 3 2 2 1 1 1 0 1 3 3 4 5
6 7 5 2 4 6 4 5 9 9 8 7 8 8 9 13 12 11 12 14 12 13 13 13 14 14 12 11 13 12 12 11 12 12 12 11 12 12 9 9 9 9 10 10 9 9 9 8 7 8 7 7 7 6 5 5 5 4 4 5 4 5 4 4 3 3 3 4 5 4 3 4 3 3 4 3 3 3 3 2 2 2 1 2 1 1 2 1 0 0 0 2 2 1 2 2 4
4 5 7 5 2 7 7 6 9 9 5 4 11 8 7 9 10 11 9 12 12 11 11 11 12 14 13 13 12 12 12 12 13 13 14 13 12 11 10 9 9 9 9 9 10 10 9 8 8 8 8 8 7 7 6 5 5 5 2 2 2 1 4 3 2 3 3 3 5 5 4 4 3 3 3 3 3 2 2 2 1 2 2 1 1 1 1 1 1 1 1 2 3 1 2 3 2
3 3 6 6 9 6 7 7 8 8 10 9 9 6 8 9 9 7 10 10 9 10 10 7 10 12 12 12 12 12 13 13 12 13 13 13 13 12 11 10 9 9 9 9 10 10 8 10 10 9 8 8 7 7 7 5 6 5 4 3 3 3 1 3 4 4 4 4 4 5 5 4 4 3 3 2 2 3 2 1 1 2 2 2 1 2 2 1 0 2 2 0 2 4 2 3 3
6 4 3 6 7 4 2 8 9 7 7 9 10 5 7 11 13 12 11 9 11 12 13 15 15 13 13 13 13 12 12 13 12 13 14 14 13 12 11 10 10 9 9 9 10 10 9 10 10 9 8 7 7 8 8 6 6 5 5 5 5 5 4 5 5 5 5 6 5 5 5 5 4 3 3 2 2 2 2 2 1 2 3 2 1 1 1 1 2 0 2 2 1 2 3 2 2
5 8 6 6 5 2 3 7 8 6 6 8 12 6 1 4 9 12 13 14 14 12 14 14 12 12 13 12 13 13 13 13 13 12 13 14 13 13 12 11 11 10 10 9 9 9 10 9 10 10 8 7 7 8 9 7 7 6 7 7 6 5 5 5 4 4 4 4 3 5 4 4 4 4 4 3 2 2 2 2 2 2 2 2 2 2 2 3 3 2 2 2 3 3 3 2 2
3 10 6 7 6 5 7 7 7 5 5 8 11 7 2 2 7 15 16 15 16 15 15 15 12 13 14 13 14 14 14 14 13 13 13 13 13 13 13 12 11 10 10 10 10 9 10 9 10 10 8 7 7 8 9 7 7 7 7 7 5 5 6 5 5 4 3 2 3 4 4 4 4 3 2 3 3 3 3 3 2 2 2 1 1 2 1 1 3 2 1 2 1 1 2 3 4
7 2 4 5 7 8 10 8 6 4 5 4 7 10 6 4 7 13 16 16 15 15 15 15 15 14 14 15 14 15 14 14 14 14 14 14 14 13 12 12 11 11 10 10 10 9 10 9 9 9 8 8 7 9 9 8 7 7 7 7 5 5 4 5 5 5 4 4 4 3 2 3 4 4 3 4 4 4 3 3 2 2 2 2 3 2 2 2 1 2 1 1 1 1 1 3 3
4 2 3 1 5 7 8 8 6 2 5 7 8 10 5 4 5 8 12 11 14 16 16 16 17 16 15 15 16 16 14 13 14 15 15 15 14 13 13 12 12 10 10 10 10 10 10 9 10 10 9 8 7 9 8 9 8 7 7 6 7 5 5 4 5 5 4 4 4 4 4 3 4 5 5 4 4 4 4 3 4 3 3 3 2 1 1 2 2 2 1 1 1 1 1 1 2
7 4 5 6 7 5 4 5 4 5 7 6 6 10 9 0 5 9 10 9 13 12 12 12 15 17 16 15 16 16 15 14 13 14 15 15 14 14 13 13 11 11 10 10 10 10 10 10 10 11 10 8 8 9 9 9 9 7 7 7 7 7 6 6 5 5 4 4 4 4 4 4 3 3 4 5 5 5 4 4 4 3 3 3 2 2 3 3 3 3 2 2 2 1 1 1 2
8 7 8 6 4 3 7 6 5 7 6 1 2 7 7 3 7 9 8 4 9 13 16 16 15 18 18 16 15 16 17 15 15 14 15 15 15 15 13 12 12 11 11 11 10 10 10 10 10 11 10 10 8 9 9 9 8 8 8 8 8 7 7 6 6 6 6 5 5 4 3 3 4 4 4 3 5 6 4 4 4 2 2 2 3 3 2 2 2 2 2 2 2 2 1 1 2
9 9 8 10 7 5 7 7 10 9 6 3 4 6 5 8 3 5 9 6 6 8 10 15 18 19 20 19 18 15 15 16 15 15 14 14 15 14 14 13 12 11 11 12 12 11 10 10 11 11 11 11 9 9 10 9 9 9 8 8 8 7 7 6 6 5 5 5 4 4 4 4 4 4 4 5 5 4 4 3 3 2 2 2 1 1 1 1 1 2 1 3 1 2 2 2 2
11 10 9 11 10 9 9 10 7 6 7 4 3 4 7 1 3 3 4 6 6 7 10 13 18 21 21 19 18 16 16 16 15 16 15 14 13 13 13 12 12 12 13 13 12 11 10 10 11 12 11 11 10 10 10 10 10 9 9 8 8 7 7 7 5 5 5 5 4 4 4 5 5 5 5 4 4 5 4 4 3 3 2 1 2 2 2 2 2 2 2 3 3 2 1 2 3
11 10 10 11 10 6 10 8 10 8 7 8 5 4 3 8 4 5 3 3 3 5 7 10 13 16 18 19 20 18 17 16 15 15 16 15 13 14 13 13 13 13 13 12 11 11 10 10 11 11 12 12 12 11 10 11 10 10 9 9 8 7 7 7 6 5 4 5 5 5 4 4 4 4 4 3 3 3 3 3 3 3 3 3 3 3 3 3 3 3 2 2 3 2 2 2 3
10 10 8 12 12 7 10 4 7 8 4 6 7 6 1 1 7 4 3 4 5 6 8 9 12 12 15 16 17 17 16 16 16 15 15 16 15 14 13 13 13 12 13 12 13 12 11 10 11 12 12 12 12 12 11 10 10 9 10 10 9 8 7 6 6 5 5 5 5 4 4 4 3 2 3 3 4 5 4 4 4 5 4 4 4 4 4 3 4 4 2 3 4 2 2 3 3
9 10 13 11 7 8 7 6 6 6 6 8 5 7 5 8 7 5 6 4 5 5 8 10 11 12 14 14 16 17 16 16 15 15 14 15 15 15 14 14 13 12 12 12 12 13 13 12 12 12 12 12 12 12 12 10 10 10 10 10 10 10 9 9 8 8 8 6 5 5 5 5 4 4 3 5 5 4 4 5 5 5 5 4 4 4 5 4 3 4 4 3 4 2 2 2 3
4 11 10 7 4 7 7 9 6 8 8 7 8 9 9 8 5 1 4 5 4 6 7 10 11 12 14 15 16 17 18 17 16 15 13 13 13 14 14 13 13 13 13 13 14 14 12 12 13 13 13 13 12 12 12 11 11 11 10 10 11 10 9 10 9 8 8 7 6 5 5 5 5 5 5 3 4 5 5 5 5 5 4 4 4 4 5 5 4 4 3 4 3 2 3 3 3
9 4 8 12 10 12 8 6 10 10 10 8 7 7 10 8 3 6 5 5 5 5 7 9 11 12 13 14 15 16 16 16 15 15 13 13 12 13 13 13 13 12 12 13 14 13 11 12 12 13 14 14 13 11 11 10 10 9 9 10 11 10 9 8 8 8 7 7 8 7 7 5 5 5 5 4 4 5 5 6 6 6 6 6 5 5 5 5 5 5 4 4 4 4 3 3 3
11 6 6 7 7 9 10 10 7 6 9 10 8 8 8 8 3 7 7 6 5 6 6 8 10 10 11 11 13 13 11 11 14 14 12 12 11 12 12 12 12 12 11 11 11 10 11 10 11 11 12 12 12 12 11 11 11 10 9 9 9 9 9 9 8 8 8 8 8 7 7 7 7 6 6 6 6 6 6 6 7 7 6 6 6 6 6 5 5 5 4 4 2 3 4 4 4
13 11 9 10 9 5 8 9 12 10 8 9 8 8 8 5 6 7 7 6 4 5 6 7 8 9 10 12 14 15 16 15 15 13 12 12 11 11 12 11 11 11 10 10 10 11 10 9 10 11 11 12 13 12 11 10 9 10 10 10 10 10 11 10 10 9 9 9 8 8 7 7 6 7 6 6 6 6 6 6 6 6 6 5 4 4 4 4 4 4 4 4 3 3 4 4 4
13 11 12 9 10 11 10 10 10 11 8 5 7 9 3 6 3 5 6 6 5 3 5 6 7 9 9 9 11 15 15 14 14 11 11 12 12 12 12 10 10 10 10 11 10 10 11 10 9 10 10 10 11 12 11 10 10 9 11 10 11 10 10 10 11 10 10 10 9 8 8 7 7 7 7 7 7 7 7 7 7 6 5 4 5 5 5 5 5 5 5 5 5 5 5 5 4
Wind_Direction
178 196 177 185 205 220 235 210 240 164 212 110 112 194 90 95 107 122 112 138 116 102 107 129 130 141 150 105 89 75 39 93 16 294 96 114 133 133 143 133 135 136 137 136 129 137 134 113 338 91 96 89 57 112 99 74 84 79 80 94 80 91 96 98 99 90 77 81 80 93 97 90 89 90 87 85 86 88 88 88 92 97 101 104 107 102 102 104 105 104 103 102 101 99 97 94 92
186 182 178 172 208 209 194 246 243 148 218 116 82 97 113 109 141 121 133 132 112 131 134 136 121 81 63 78 127 114 71 38 28 87 93 115 128 130 133 139 141 138 137 135 136 131 124 119 19 101 111 119 122 87 106 110 95 96 102 91 92 94 96 101 96 91 97 91 96 99 95 93 91 89 89 92 88 92 92 91 103 108 106 110 110 109 108 107 107 105 102 100 100 98 97 94 92
174 181 177 206 230 231 306 244 269 28 160 109 101 87 128 135 121 127 115 110 125 128 136 121 113 133 113 147 117 336 90 57 95 104 104 125 129 138 140 142 140 136 133 134 131 125 123 108 15 91 78 104 127 128 105 95 101 104 99 105 101 94 92 93 96 98 106 109 106 104 107 103 91 93 96 99 98 93 98 103 103 104 106 112 109 105 110 108 107 105 103 102 98 97 95 94 92
183 215 225 204 207 200 236 238 301 276 127 96 123 125 130 124 124 117 118 118 126 135 132 135 131 8 167 110 86 97 83 97 101 113 118 149 128 138 142 139 137 138 133 134 127 120 110 123 356 111 121 116 111 103 101 106 105 100 96 88 87 88 94 96 97 98 101 112 109 103 103 106 100 98 94 98 102 95 94 97 104 109 110 103 101 104 108 108 106 100 94 96 97 97 98 98 100
210 196 244 241 287 200 210 173 262 255 112 142 114 128 124 127 123 126 121 130 137 137 136 130 118 100 74 72 66 64 88 101 111 119 125 115 124 137 141 140 145 137 134 128 123 111 106 90 124 126 115 122 101 99 98 91 97 99 97 94 91 97 101 99 99 106 120 106 93 97 96 96 102 102 102 99 94 89 96 98 103 112 114 113 107 97 94 103 102 101 100 96 96 98 98 97 96
221 238 220 243 253 24 263 225 168 78 46 33 118 121 129 128 131 128 129 138 138 128 133 149 119 144 107 55 38 98 129 137 123 121 127 120 132 137 138 148 140 135 125 121 112 111 111 108 103 103 100 89 84 81 81 83 85 97 102 101 99 100 101 100 99 111 113 97 97 100 102 103 103 102 102 104 101 99 99 104 109 111 111 110 107 102 98 102 101 100 101 100 99 103 99 100 100
242 262 212 228 289 224 297 32 74 88 74 346 104 126 134 132 129 134 137 139 142 126 140 121 118 120 112 112 85 60 49 103 138 122 129 129 131 138 143 147 136 127 123 118 111 107 102 102 83 79 83 81 87 87 83 87 84 94 97 99 102 100 98 97 101 109 104 103 108 114 112 109 103 99 101 103 104 104 102 104 104 107 113 116 108 98 101 92 85 98 106 110 110 101 98 98 97
258 260 357 231 193 219 141 56 57 13 90 76 110 123 130 132 138 139 145 150 147 150 145 136 132 88 88 108 95 81 106 105 95 108 120 132 136 139 148 140 137 130 123 119 111 100 107 103 104 92 82 80 82 84 96 102 99 94 101 102 99 94 89 98 113 115 106 107 110 112 110 108 109 108 106 102 98 99 100 98 98 104 112 111 104 97 95 91 73 73 100 105 100 99 99 99 99
222 269 245 257 213 190 157 84 82 73 101 112 107 115 127 135 144 143 150 149 142 138 143 145 135 131 97 101 88 104 98 101 112 115 128 131 138 143 146 143 138 128 126 120 116 116 106 95 92 94 94 91 98 101 97 96 96 98 106 100 95 92 91 104 112 117 113 112 117 115 109 108 105 108 112 110 102 96 103 101 108 107 104 107 106 100 100 93 78 73 79 101 98 98 98 98 99
261 109 260 288 349 190 116 109 128 90 101 110 125 136 137 142 145 151 148 148 147 141 132 118 106 110 120 108 118 131 115 120 123 129 131 137 138 146 143 141 134 130 124 118 117 109 99 95 91 90 96 102 105 103 100 94 92 97 90 99 99 101 101 102 106 109 111 114 112 108 104 103 107 107 108 108 104 105 105 109 111 104 103 104 100 98 96 95 86 71 50 48 102 104 101 101 100
260 211 312 263 206 180 116 116 114 120 109 112 117 130 136 145 150 149 149 144 146 143 130 121 117 120 115 95 90 89 119 129 139 133 138 136 140 145 143 135 133 129 124 119 113 113 117 105 107 103 100 99 93 90 92 94 99 94 100 91 92 100 107 105 108 108 111 115 111 108 107 107 105 104 108 103 98 100 102 102 99 102 103 102 98 99 100 94 80 70 53 39 91 105 103 100 97
276 289 262 296 306 11 98 124 114 113 123 127 121 134 139 146 154 152 148 150 157 147 138 149 117 124 115 121 116 129 134 141 134 131 137 138 142 142 137 137 134 127 119 119 117 114 113 116 104 99 94 96 86 69 90 92 86 85 85 86 89 95 101 110 109 108 105 105 109 112 112 113 113 109 110 109 109 108 104 99 102 107 107 106 106 102 104 93 80 76 84 65 13 102 104 102 100
303 310 301 297 322 301 93 127 115 134 127 129 135 131 147 153 161 155 152 143 155 154 148 122 137 138 120 119 118 134 145 137 135 137 140 148 138 141 143 133 135 119 118 113 103 102 109 112 116 112 98 90 93 109 102 90 89 92 94 88 90 95 101 102 104 101 102 105 107 110 113 113 115 114 109 112 112 108 110 109 109 110 110 112 111 110 98 91 96 101 104 88 331 108 104 102 102
296 348 306 287 272 262 134 93 147 141 124 119 125 139 156 154 156 152 151 145 147 139 119 137 144 117 109 118 143 151 140 141 138 140 143 142 141 142 140 136 131 127 123 113 108 105 99 101 103 104 108 108 107 91 80 91 91 93 95 96 98 97 103 103 102 102 105 108 109 110 110 109 112 112 115 114 113 115 114 110 109 108 112 110 104 97 95 98 97 101 88 68 240 114 103 100 98
311 352 292 276 238 217 79 156 153 135 126 137 131 141 147 131 146 153 155 134 114 123 125 137 136 159 148 155 152 156 144 146 141 141 143 143 145 138 139 135 132 130 117 113 105 110 105 100 96 90 90 96 104 100 99 102 105 97 92 99 97 99 100 102 102 104 108 106 107 108 107 108 112 117 114 109 109 115 114 119 118 108 102 104 111 106 98 101 105 100 107 144 196 107 102 96 95
332 286 270 279 182 197 169 138 137 129 133 141 143 141 134 136 146 144 131 134 126 129 146 131 152 327 150 152 148 139 141 143 142 142 142 143 139 139 138 142 135 123 114 111 102 100 105 95 90 92 95 102 90 109 110 97 95 103 101 95 100 98 100 101 103 104 104 105 105 105 107 112 115 117 120 118 122 124 124 115 110 109 114 120 119 114 112 102 107 116 163 178 140 104 100 98 96
270 258 255 248 183 204 138 149 157 146 137 138 153 153 136 137 127 108 122 134 139 129 129 126 125 167 148 132 133 134 139 138 143 145 142 143 150 147 147 145 139 130 123 111 102 112 107 98 91 101 102 92 91 98 102 93 90 101 103 105 100 104 101 99 101 102 103 104 106 105 104 104 112 124 124 125 128 133 131 126 120 120 116 112 113 117 120 133 130 158 163 187 108 104 100 98 98
275 279 298 184 12 125 93 131 152 111 139 145 158 153 135 133 143 128 138 138 132 129 117 111 107 100 112 118 129 134 138 145 148 152 150 149 160 150 153 148 154 141 135 123 122 117 108 102 108 105 108 113 123 108 116 99 101 98 106 112 109 105 104 107 106 101 100 99 104 114 100 106 118 107 113 124 127 133 132 122 124 125 123 122 126 124 128 128 138 179 162 124 111 120 136 121 113
273 283 256 17 65 74 134 70 119 150 137 148 144 157 139 130 140 148 145 140 145 139 129 128 114 111 117 128 133 137 146 148 154 156 156 153 158 151 154 148 144 137 130 129 125 119 103 105 105 113 107 114 115 115 112 117 145 143 116 117 109 108 100 91 94 100 104 115 123 145 128 131 118 131 118 114 128 123 119 122 120 121 123 123 123 127 128 137 170 168 140 139 135 162 129 105 116
350 290 359 60 46 114 130 131 115 126 138 140 148 149 137 138 140 163 149 145 155 147 137 139 139 137 136 136 140 144 151 152 156 158 157 155 156 153 148 152 142 144 138 134 125 118 116 108 108 101 107 116 121 118 126 128 142 144 135 124 122 126 124 123 97 91 108 146 158 132 102 105 109 102 111 121 128 118 112 117 116 110 112 119 126 132 145 153 143 141 147 177 174 123 98 122 114
85 290 53 73 103 123 113 117 149 132 142 139 140 139 136 150 140 163 139 141 149 144 150 147 146 146 141 143 144 148 154 154 160 161 157 156 156 153 151 151 142 139 127 116 125 122 123 123 117 114 113 113 114 115 120 114 115 112 102 104 103 106 113 120 118 114 127 140 113 111 117 121 127 132 135 144 116 112 114 114 123 133 140 136 137 138 139 171 176 136 142 151 99 118 104 92 90
271 45 67 109 117 99 105 112 140 133 129 145 140 151 134 137 152 142 156 139 146 148 146 144 146 148 146 147 146 151 157 158 160 164 161 159 158 155 147 140 128 134 124 138 121 131 134 123 129 125 117 109 109 117 111 108 116 110 104 99 100 99 103 105 114 126 130 120 114 106 108 111 115 119 119 116 126 136 153 156 139 136 138 137 177 140 117 115 98 110 109 111 101 97 88 78 84
275 94 62 79 85 112 127 134 138 135 146 147 155 129 134 149 135 146 123 91 107 129 136 139 143 145 145 143 147 154 160 161 163 164 162 163 159 155 154 147 148 144 155 123 131 127 130 128 123 120 115 109 104 107 113 115 111 109 108 99 100 97 100 104 108 111 109 114 118 124 123 122 117 118 119 121 123 121 115 118 119 126 132 125 117 112 109 108 99 93 87 83 75 94 100 109 104
326 44 59 83 103 119 137 132 143 142 149 148 119 142 141 139 135 137 116 99 112 120 132 137 140 143 147 147 153 155 159 161 163 160 164 162 162 155 154 149 149 127 149 134 136 141 143 130 126 119 116 117 123 122 111 107 109 112 105 113 98 94 99 102 104 101 109 113 115 113 120 117 118 114 114 117 117 112 107 109 117 123 117 109 98 101 105 97 99 95 91 86 93 85 98 91 99
343 83 82 97 106 119 131 135 145 142 134 122 146 154 136 149 126 146 110 124 128 132 131 138 141 144 149 150 153 155 157 160 159 159 163 159 159 152 157 149 150 144 146 142 135 134 136 126 143 129 124 119 121 119 107 107 114 110 110 108 103 109 102 102 105 114 111 107 107 120 122 120 118 113 114 109 101 102 112 116 115 106 107 110 117 103 96 101 101 101 100 110 90 87 89 102 113
115 87 112 119 117 122 132 137 146 141 140 157 159 134 133 120 126 102 125 127 136 132 135 142 146 147 153 156 153 157 160 159 159 161 164 159 160 160 162 163 152 164 144 146 144 135 140 141 139 130 126 124 121 118 110 107 106 113 106 103 109 116 107 105 115 111 111 116 111 101 104 113 112 112 108 109 110 110 110 108 108 107 107 100 99 90 92 88 83 80 77 72 84 93 95 86 87
126 103 85 101 111 124 130 140 136 141 151 173 147 135 131 146 186 120 136 140 143 138 141 146 151 153 156 156 155 159 162 160 162 161 161 163 160 167 167 164 163 156 145 157 138 135 134 146 138 133 124 125 128 120 116 114 110 111 110 114 117 114 113 119 113 108 111 105 104 107 101 105 111 109 110 114 117 117 113 112 107 113 106 95 90 94 70 59 59 66 64 72 83 73 77 72 73
125 112 109 108 107 103 129 140 134 138 125 256 141 131 134 139 263 124 146 152 149 145 145 153 157 157 157 157 156 160 162 161 160 166 166 167 168 173 168 168 167 157 157 157 138 147 148 147 136 140 135 131 127 124 127 124 125 119 120 121 113 107 118 113 111 106 101 99 104 109 101 88 88 98 111 119 116 118 115 113 112 98 90 85 73 60 58 51 57 61 58 53 69 92 95 95 71
141 160 128 122 130 111 132 145 149 165 103 352 117 141 150 173 116 122 145 153 150 150 151 157 161 158 158 158 156 162 162 164 164 171 172 171 170 174 170 167 167 163 156 154 140 160 142 148 125 141 136 136 142 132 127 130 127 130 126 122 116 126 126 119 110 109 107 108 107 101 98 99 105 108 112 116 124 116 110 114 104 91 87 78 69 59 58 54 64 77 68 53 61 87 82 97 103
155 209 140 148 151 123 114 118 143 153 118 150 260 167 173 162 123 146 151 154 153 156 158 161 162 163 159 162 159 163 162 166 173 171 173 171 174 175 170 169 166 164 152 151 152 160 136 140 140 141 141 142 142 132 132 132 132 124 132 124 119 139 122 118 119 116 116 118 115 113 106 99 101 108 115 120 129 123 118 107 102 100 93 83 75 44 64 53 53 37 28 50 52 53 64 51 61
196 150 211 161 178 114 151 170 156 153 142 121 331 128 149 111 141 151 157 162 162 162 161 164 166 164 161 166 164 167 163 174 173 170 174 171 177 174 170 169 169 158 152 160 157 150 146 140 144 139 147 137 147 132 140 133 139 138 135 136 128 139 127 133 127 128 131 127 128 120 115 109 108 105 102 118 113 123 130 119 119 103 83 77 78 60 30 59 49 39 23 15 32 45 56 55 45
180 175 192 182 134 148 144 159 174 153 161 172 156 117 220 153 154 158 163 169 174 167 165 165 168 166 165 167 169 170 166 172 175 172 171 173 179 175 171 168 172 159 162 156 149 158 151 144 160 144 145 148 138 142 138 135 132 133 127 131 130 150 135 131 132 134 133 136 134 124 124 120 114 108 108 114 133 145 116 126 106 98 119 99 69 58 37 68 61 39 17 8 23 22 21 64 77
175 185 184 175 137 135 154 154 175 160 143 162 207 146 149 198 156 159 172 175 184 177 168 168 167 168 167 168 173 170 166 170 175 174 170 176 174 177 170 169 171 164 162 158 153 160 159 141 174 150 152 144 140 138 140 132 140 140 145 155 133 157 149 135 137 133 135 134 129 124 129 127 116 115 111 120 153 129 115 122 128 129 124 93 79 84 78 59 33 77 37 11 11 351 356 64 45
188 198 214 122 160 153 152 136 168 165 165 160 206 147 175 155 168 166 176 182 188 185 175 168 171 170 171 170 174 172 173 172 176 174 172 178 169 176 173 169 163 173 152 162 158 161 167 149 165 152 140 150 144 142 144 149 146 151 154 149 149 159 156 148 140 142 145 126 140 122 132 136 132 125 121 128 332 98 89 71 87 103 119 112 118 109 78 74 74 46 58 26 7 333 10 23 37
182 196 161 160 134 205 121 176 166 166 185 165 174 170 157 161 170 173 178 182 191 187 181 172 173 172 173 174 179 176 179 177 173 177 171 178 168 172 170 169 164 173 161 162 160 154 162 153 145 148 150 150 141 142 140 146 148 160 158 160 148 160 161 133 134 147 148 151 129 125 139 144 129 134 128 133 166 152 137 111 112 103 100 116 136 135 98 71 51 42 21 50 346 340 346 11 17
217 202 213 138 177 167 169 113 141 171 169 173 182 186 157 166 176 179 177 180 194 187 179 174 176 173 176 180 181 181 182 180 170 174 172 175 170 173 165 170 168 169 165 155 159 159 158 156 154 151 156 151 145 152 159 161 165 169 163 161 156 171 163 151 162 157 149 143 122 145 144 137 136 139 141 141 134 118 117 123 111 140 112 115 72 71 91 98 59 64 41 8 345 314 15 350 31
190 193 197 180 200 126 98 130 154 168 172 185 188 174 173 174 178 181 179 177 195 187 180 180 181 176 181 182 182 182 182 180 171 171 173 176 171 172 168 169 171 165 166 160 167 164 163 165 161 158 155 159 157 164 167 172 166 164 168 177 165 161 168 152 173 164 158 139 121 123 149 145 145 146 147 151 133 123 121 107 119 121 141 96 93 67 53 59 63 11 83 287 338 6 31 2 47
201 181 203 162 244 140 143 152 162 174 202 164 180 183 193 182 180 179 174 182 193 188 184 184 183 182 185 186 180 184 179 178 173 173 177 176 178 171 171 174 174 172 172 169 174 168 167 168 167 159 159 164 168 170 167 175 170 172 170 173 167 152 159 171 165 172 163 129 139 138 160 134 147 151 147 146 139 144 144 139 137 116 105 91 51 58 74 80 82 353 337 155 283 16 34 21 26
190 188 170 182 104 68 106 157 162 173 218 159 179 182 201 178 177 172 180 189 195 194 186 187 184 185 184 189 187 182 180 182 178 179 178 181 178 174 174 177 178 180 177 175 176 171 167 170 170 163 165 168 172 170 175 173 178 170 189 154 174 147 154 166 155 147 163 141 149 155 143 146 159 147 149 155 148 154 135 130 143 130 103 118 141 134 139 132 207 103 110 24 352 114 54 50 53
205 181 191 203 31 277 150 167 172 173 192 161 176 206 193 161 163 178 189 193 194 199 196 189 189 190 185 188 191 185 183 183 184 181 182 183 179 176 176 178 180 184 180 178 179 175 172 171 168 171 170 172 172 169 182 173 169 158 155 145 147 134 148 142 124 144 168 154 152 157 154 160 174 158 157 164 149 131 130 138 140 110 133 107 143 107 160 168 172 205 21 54 328 333 79 74 60
218 213 200 160 164 223 298 133 186 168 183 234 150 208 181 164 157 185 195 202 198 205 186 226 214 198 186 185 191 190 188 183 184 184 183 182 180 178 177 177 179 186 185 183 185 175 181 172 169 175 171 176 176 167 176 173 158 164 161 147 167 154 138 170 184 176 172 171 179 167 162 173 168 172 164 164 148 135 124 146 140 144 135 165 156 178 211 150 207 92 57 12 2 351 19 61 65
172 205 199 125 149 195 240 142 165 195 195 207 192 189 224 182 171 186 176 184 201 190 192 196 204 196 192 190 190 192 194 183 188 185 183 180 181 176 176 178 183 186 187 187 190 178 179 170 169 172 171 177 180 168 173 172 173 176 174 178 183 188 187 186 189 187 177 175 189 159 154 179 169 177 169 182 170 146 153 151 174 180 158 156 201 334 66 137 197 237 85 339 58 40 340 1 70
213 165 187 148 141 165 225 170 209 205 237 176 206 227 351 135 186 171 169 188 188 183 200 195 195 195 194 192 193 192 194 185 186 187 183 182 181 179 179 182 187 189 185 187 189 179 176 169 170 173 173 176 176 173 173 173 178 183 189 194 195 192 190 186 191 191 182 181 177 160 155 167 177 190 175 183 166 174 167 165 176 213 173 162 176 183 205 233 116 78 41 40 8 11 331 353 350
181 92 194 188 187 192 224 236 227 268 51 148 207 222 181 255 210 176 174 183 186 189 195 197 192 196 197 195 194 195 192 191 184 186 186 189 186 185 185 183 189 190 184 181 185 180 173 175 172 176 176 178 177 175 178 180 180 184 190 201 196 203 195 179 177 188 181 188 162 178 165 170 167 202 178 165 193 190 186 182 183 202 215 168 183 204 239 360 49 67 67 48 6 338 345 340 349
59 109 138 206 211 202 227 234 240 267 282 206 197 204 220 220 181 175 169 176 185 190 192 197 197 200 201 198 197 196 197 193 189 186 186 192 189 189 189 188 188 191 181 178 181 178 173 173 173 178 179 180 175 176 182 182 189 186 189 192 191 196 197 175 179 183 175 177 172 169 180 171 166 187 202 188 184 192 197 193 188 203 196 194 213 194 210 121 131 98 156 192 187 175 350 14 327
137 81 220 221 208 203 219 228 238 224 243 236 189 195 211 168 156 163 175 188 187 190 189 195 198 200 200 200 196 200 196 197 196 189 188 191 192 193 192 191 190 188 183 177 178 174 173 173 177 179 183 185 179 180 187 184 188 189 191 195 188 185 185 174 176 166 175 180 188 184 184 203 200 182 185 204 186 197 201 195 207 195 200 191 222 127 130 130 167 166 207 213 43 33 15 290 319
35 219 204 187 198 207 211 248 243 249 240 249 181 194 250 238 216 175 176 210 193 181 186 189 196 199 203 199 198 195 195 197 198 194 191 193 193 195 196 192 190 191 185 181 182 177 176 177 176 183 184 188 183 184 188 188 188 193 195 192 192 187 182 172 179 175 185 190 202 197 192 195 211 204 200 174 202 200 196 211 227 194 210 153 214 192 201 194 174 184 175 140 191 254 244 254 259
221 219 221 184 191 217 226 215 229 235 231 114 217 199 209 254 165 173 197 173 180 182 189 179 189 199 199 200 197 195 195 195 195 197 194 192 195 197 194 192 191 193 189 186 188 179 181 179 178 181 184 190 188 189 189 192 192 192 200 194 194 193 189 188 191 194 195 200 200 202 203 195 206 201 214 195 196 198 187 207 225 217 202 204 193 215 198 202 213 172 179 191 198 213 235 250 283
217 221 207 204 196 205 215 215 213 222 229 142 247 202 213 242 346 89 157 153 146 171 172 182 185 199 199 197 198 193 193 192 192 195 197 194 195 195 195 192 186 192 195 191 193 185 183 181 180 181 184 188 192 191 189 193 195 194 196 197 197 196 194 204 204 203 202 206 207 204 195 203 198 211 204 210 194 206 181 199 217 212 203 227 267 284 188 211 284 278 118 237 208 222 210 217 228
212 215 196 209 208 210 221 210 232 234 182 154 205 200 248 152 180 104 158 166 166 164 161 178 190 195 199 193 196 190 190 191 191 190 196 196 193 195 195 189 187 191 193 191 193 190 185 183 181 187 186 187 191 194 191 191 197 197 194 199 198 194 198 204 209 212 204 203 204 217 211 205 202 211 204 205 216 189 195 185 194 205 204 227 221 225 230 207 214 259 222 259 230 200 225 216 239
210 217 217 218 226 220 224 210 211 216 233 191 147 212 222 195 109 130 127 195 224 215 194 168 185 198 196 192 189 186 186 189 192 191 193 191 190 194 193 191 191 193 195 192 191 187 186 185 181 187 189 190 193 196 193 194 196 198 196 201 201 201 204 204 213 218 215 206 210 203 215 223 210 203 205 196 203 212 202 194 193 210 196 211 208 213 211 203 209 229 257 259 286 187 230 246 232
201 212 230 236 228 211 239 251 236 236 215 178 183 234 105 120 137 117 169 164 200 199 204 189 179 180 188 191 189 187 186 188 189 190 192 190 190 194 195 193 193 195 192 191 188 184 188 185 183 188 190 191 195 197 199 199 199 198 200 202 205 208 211 215 209 212 216 226 211 227 209 225 243 211 201 195 191 205 207 210 199 204 212 204 206 214 224 213 198 231 228 233 246 211 232 229 245
174 199 215 223 247 249 225 234 258 297 260 239 209 230 228 115 168 159 160 203 188 195 197 191 179 179 176 185 187 190 189 187 186 190 190 191 190 191 195 196 195 194 192 191 186 185 187 184 186 188 190 194 197 197 201 202 201 204 203 205 208 205 208 214 213 206 217 211 223 219 215 217 208 223 206 190 198 191 206 215 212 212 194 213 213 213 220 216 213 229 220 217 251 226 226 251 264
125 215 214 198 304 303 235 240 211 236 241 231 195 221 229 200 190 204 163 169 161 172 183 177 168 173 175 182 181 185 187 188 186 187 189 192 192 192 194 197 197 193 193 189 188 190 186 188 189 186 188 196 198 199 202 202 203 207 207 209 211 214 211 214 220 213 213 217 209 222 230 204 216 202 211 187 190 190 196 207 210 214 215 212 222 216 207 210 213 232 223 236 239 248 237 232 240
238 300 193 198 182 214 212 266 225 223 222 234 193 229 250 241 155 170 161 146 121 138 160 159 164 172 176 177 181 185 185 182 184 185 185 188 187 192 193 195 198 193 194 190 189 190 186 192 193 194 194 195 199 201 200 202 204 207 208 210 212 212 218 219 220 221 219 217 221 208 218 216 208 200 198 210 206 203 197 196 207 207 207 216 210 219 208 210 210 230 227 231 203 217 238 236 232
248 282 257 202 247 226 210 218 252 246 240 234 206 215 236 211 208 133 118 101 109 115 151 165 162 167 174 170 167 164 153 178 183 180 175 174 181 192 192 190 195 191 189 189 183 189 192 191 191 197 195 194 199 204 199 202 203 209 208 206 210 215 216 223 222 220 219 216 217 224 216 207 215 204 201 198 215 215 200 202 198 211 211 205 205 209 209 201 217 231 244 251 176 197 233 236 253
196 215 231 195 227 273 259 210 222 233 247 237 245 213 226 94 46 88 110 108 112 134 146 150 159 158 167 167 168 169 172 174 181 175 177 182 182 187 192 188 189 185 183 183 182 187 190 190 189 194 191 194 197 202 202 203 209 207 209 209 208 207 216 217 222 219 223 221 219 224 217 219 199 214 210 204 208 211 209 208 220 208 215 198 209 216 208 209 214 223 236 254 272 242 243 247 234
196 206 215 214 206 209 211 225 207 239 240 235 226 242 136 78 88 101 113 126 120 131 147 155 155 154 160 160 187 174 177 178 172 157 181 192 186 184 189 181 180 179 176 182 179 179 181 185 186 188 188 201 198 199 201 200 206 210 212 211 215 211 212 219 222 219 219 219 220 216 219 216 215 205 214 215 208 210 203 208 213 208 217 211 199 208 227 215 217 222 236 227 216 223 235 248 263